Wetterdaten: Donnerstag, 16.10.2014
Datum Zeit Temperatur Luftfeuchte Luftdruck Regen Wind Richtung Richtung Taupunkt Windchill Windben
16.10.2014 00:00 11,2 C 93 % 1013,5 hPa 0,0 l/m 0,0 km/h (0 Bft) S-SO 157 10,1 C 22,8 C 0,0 km/h (0 Bft)
16.10.2014 00:10 11,2 C 93 % 1013,5 hPa 0,0 l/m 0,0 km/h (0 Bft) S-SO 157 10,1 C 22,8 C 0,0 km/h (0 Bft)
16.10.2014 00:20 11,2 C 93 % 1013,5 hPa 0,0 l/m 0,0 km/h (0 Bft) S-SO 157 10,1 C 22,8 C 0,0 km/h (0 Bft)
16.10.2014 00:30 11,1 C 93 % 1013,4 hPa 0,0 l/m 0,0 km/h (0 Bft) S-SO 157 10,0 C 22,8 C 0,0 km/h (0 Bft)
16.10.2014 00:38 11,1 C 94 % 1013,4 hPa 0,0 l/m 0,0 km/h (0 Bft) S-SO 157 10,2 C 22,8 C 0,0 km/h (0 Bft)
16.10.2014 00:40 11,1 C 94 % 1013,4 hPa 0,0 l/m 0,0 km/h (0 Bft) S-SO 157 10,2 C 22,8 C 0,0 km/h (0 Bft)
16.10.2014 00:50 10,9 C 94 % 1013,4 hPa 0,0 l/m 0,0 km/h (0 Bft) S-SO 157 10,0 C 22,8 C 0,0 km/h (0 Bft)
16.10.2014 01:00 10,9 C 94 % 1013,4 hPa 0,0 l/m 0,0 km/h (0 Bft) S-SO 157 10,0 C 22,8 C 0,0 km/h (0 Bft)
16.10.2014 01:10 10,8 C 94 % 1013,4 hPa 0,0 l/m 0,0 km/h (0 Bft) S-SO 157 9,9 C 22,8 C 0,0 km/h (0 Bft)
16.10.2014 01:20 10,7 C 94 % 1013,4 hPa 0,0 l/m 0,0 km/h (0 Bft) S-SO 157 9,8 C 22,8 C 0,0 km/h (0 Bft)
16.10.2014 01:30 10,5 C 94 % 1013,2 hPa 0,0 l/m 0,0 km/h (0 Bft) S-SO 157 9,6 C 22,8 C 0,0 km/h (0 Bft)
16.10.2014 01:40 10,3 C 94 % 1013,2 hPa 0,0 l/m 0,0 km/h (0 Bft) S-SO 157 9,4 C 22,8 C 0,0 km/h (0 Bft)
16.10.2014 01:50 10,3 C 94 % 1013,2 hPa 0,0 l/m 0,0 km/h (0 Bft) S-SO 157 9,4 C 22,8 C 0,0 km/h (0 Bft)
16.10.2014 02:00 10,3 C 94 % 1013,2 hPa 0,0 l/m 0,0 km/h (0 Bft) S-SO 157 9,4 C 22,8 C 0,0 km/h (0 Bft)
16.10.2014 02:10 10,3 C 94 % 1013,1 hPa 0,0 l/m 0,0 km/h (0 Bft) S-SO 157 9,4 C 22,8 C 0,0 km/h (0 Bft)
16.10.2014 02:20 10,2 C 94 % 1013,1 hPa 0,0 l/m 0,0 km/h (0 Bft) S-SO 157 9,3 C 22,8 C 0,0 km/h (0 Bft)
16.10.2014 02:30 10,2 C 94 % 1013,1 hPa 0,0 l/m 0,0 km/h (0 Bft) S-SO 157 9,3 C 22,8 C 0,0 km/h (0 Bft)
16.10.2014 02:40 10,1 C 94 % 1013,1 hPa 0,0 l/m 0,0 km/h (0 Bft) S-SO 157 9,2 C 22,8 C 0,0 km/h (0 Bft)
16.10.2014 02:50 10,1 C 94 % 1013,1 hPa 0,0 l/m 0,0 km/h (0 Bft) S-SO 157 9,2 C 22,8 C 0,0 km/h (0 Bft)
16.10.2014 03:00 10,1 C 94 % 1013,1 hPa 0,0 l/m 0,0 km/h (0 Bft) S-SO 157 9,2 C 22,8 C 0,0 km/h (0 Bft)
16.10.2014 03:10 10,1 C 95 % 1013,0 hPa 0,0 l/m 0,0 km/h (0 Bft) S-SO 157 9,3 C 22,8 C 0,0 km/h (0 Bft)
16.10.2014 03:20 10,1 C 95 % 1013,0 hPa 0,0 l/m 0,0 km/h (0 Bft) S-SO 157 9,3 C 22,8 C 0,0 km/h (0 Bft)
16.10.2014 03:30 10,1 C 95 % 1013,0 hPa 0,0 l/m 0,0 km/h (0 Bft) S-SO 157 9,3 C 22,8 C 0,0 km/h (0 Bft)
16.10.2014 03:38 10,1 C 95 % 1013,0 hPa 0,0 l/m 0,0 km/h (0 Bft) S-SO 157 9,3 C 22,8 C 0,0 km/h (0 Bft)
16.10.2014 03:40 10,1 C 95 % 1013,0 hPa 0,0 l/m 0,0 km/h (0 Bft) S-SO 157 9,3 C 22,8 C 0,0 km/h (0 Bft)
16.10.2014 03:50 10,1 C 95 % 1013,3 hPa 0,0 l/m 0,0 km/h (0 Bft) S-SO 157 9,3 C 22,8 C 0,0 km/h (0 Bft)
16.10.2014 04:00 10,1 C 95 % 1013,3 hPa 0,0 l/m 0,0 km/h (0 Bft) S-SO 157 9,3 C 22,8 C 0,0 km/h (0 Bft)
16.10.2014 04:10 10,3 C 95 % 1013,2 hPa 0,0 l/m 0,0 km/h (0 Bft) S-SO 157 9,5 C 22,8 C 0,0 km/h (0 Bft)
16.10.2014 04:20 10,5 C 95 % 1013,2 hPa 0,0 l/m 0,0 km/h (0 Bft) S-SO 157 9,7 C 22,8 C 0,0 km/h (0 Bft)
16.10.2014 04:30 10,4 C 95 % 1013,2 hPa 0,0 l/m 0,0 km/h (0 Bft) S-SO 157 9,6 C 22,8 C 0,0 km/h (0 Bft)
16.10.2014 04:40 10,3 C 95 % 1013,2 hPa 0,0 l/m 0,0 km/h (0 Bft) S-SO 157 9,5 C 22,8 C 0,0 km/h (0 Bft)
16.10.2014 04:50 10,2 C 95 % 1013,2 hPa 0,0 l/m 0,0 km/h (0 Bft) S-SO 157 9,4 C 22,8 C 0,0 km/h (0 Bft)
16.10.2014 05:00 10,1 C 95 % 1013,2 hPa 0,0 l/m 0,0 km/h (0 Bft) S-SO 157 9,3 C 22,8 C 0,0 km/h (0 Bft)
16.10.2014 05:10 9,9 C 95 % 1013,2 hPa 0,0 l/m 0,0 km/h (0 Bft) S-SO 157 9,1 C 22,8 C 0,0 km/h (0 Bft)
16.10.2014 05:20 9,8 C 95 % 1013,2 hPa 0,0 l/m 0,0 km/h (0 Bft) S-SO 157 9,0 C 22,8 C 0,0 km/h (0 Bft)
16.10.2014 05:30 9,7 C 95 % 1013,3 hPa 0,0 l/m 0,0 km/h (0 Bft) S-SO 157 8,9 C 22,8 C 0,0 km/h (0 Bft)
16.10.2014 05:40 9,5 C 95 % 1013,3 hPa 0,0 l/m 0,0 km/h (0 Bft) S-SO 157 8,7 C 22,8 C 0,0 km/h (0 Bft)
16.10.2014 05:50 9,6 C 95 % 1013,6 hPa 0,0 l/m 0,0 km/h (0 Bft) S-SO 157 8,8 C 22,8 C 0,0 km/h (0 Bft)
16.10.2014 06:00 9,8 C 95 % 1013,6 hPa 0,0 l/m 0,0 km/h (0 Bft) S-SO 157 9,0 C 22,8 C 0,0 km/h (0 Bft)
16.10.2014 06:10 9,9 C 95 % 1013,2 hPa 0,0 l/m 0,0 km/h (0 Bft) S-SO 157 9,1 C 22,8 C 0,0 km/h (0 Bft)
16.10.2014 06:20 9,8 C 95 % 1013,2 hPa 0,0 l/m 0,0 km/h (0 Bft) S-SO 157 9,0 C 22,8 C 0,0 km/h (0 Bft)
16.10.2014 06:30 9,8 C 95 % 1013,2 hPa 0,0 l/m 0,0 km/h (0 Bft) S-SO 157 9,0 C 22,8 C 0,0 km/h (0 Bft)
16.10.2014 06:38 10,4 C 95 % 1013,2 hPa 0,0 l/m 0,0 km/h (0 Bft) S-SO 157 9,6 C 22,8 C 0,0 km/h (0 Bft)
16.10.2014 06:40 10,4 C 95 % 1013,2 hPa 0,0 l/m 0,0 km/h (0 Bft) S-SO 157 9,6 C 22,8 C 0,0 km/h (0 Bft)
16.10.2014 06:50 10,1 C 95 % 1013,2 hPa 0,0 l/m 0,0 km/h (0 Bft) S-SO 157 9,3 C 22,8 C 0,0 km/h (0 Bft)
16.10.2014 07:00 9,8 C 95 % 1013,2 hPa 0,0 l/m 0,0 km/h (0 Bft) S-SO 157 9,0 C 22,8 C 0,0 km/h (0 Bft)
16.10.2014 07:10 9,3 C 95 % 1013,3 hPa 0,0 l/m 0,0 km/h (0 Bft) S-SO 157 8,5 C 22,8 C 0,0 km/h (0 Bft)
16.10.2014 07:20 9,6 C 95 % 1013,3 hPa 0,0 l/m 0,0 km/h (0 Bft) S-SO 157 8,8 C 22,8 C 0,0 km/h (0 Bft)
16.10.2014 07:30 10,5 C 95 % 1013,4 hPa 0,0 l/m 0,0 km/h (0 Bft) S-SO 157 9,7 C 22,8 C 0,0 km/h (0 Bft)
16.10.2014 07:40 11,0 C 95 % 1013,4 hPa 0,0 l/m 0,0 km/h (0 Bft) S-SO 157 10,2 C 22,8 C 0,0 km/h (0 Bft)
16.10.2014 07:50 11,1 C 95 % 1013,6 hPa 0,0 l/m 0,0 km/h (0 Bft) S-SO 157 10,3 C 22,8 C 0,0 km/h (0 Bft)
16.10.2014 08:01 11,2 C 93 % 1013,8 hPa 0,0 l/m 0,0 km/h (0 Bft) S-SO 157 10,1 C 22,8 C 0,0 km/h (0 Bft)
16.10.2014 08:02 11,2 C 93 % 1013,8 hPa 0,0 l/m 0,0 km/h (0 Bft) - - 0 10,1 C 22,8 C 0,0 km/h (0 Bft)
16.10.2014 08:10 11,2 C 93 % 1013,8 hPa 0,0 l/m 0,0 km/h (0 Bft) - - 0 10,1 C 22,8 C 0,0 km/h (0 Bft)
16.10.2014 08:20 10,7 C 93 % 1013,8 hPa 0,0 l/m 0,0 km/h (0 Bft) S-SO 157 9,6 C 22,8 C 0,0 km/h (0 Bft)
16.10.2014 08:30 10,6 C 93 % 1013,8 hPa 0,0 l/m 0,0 km/h (0 Bft) S-SO 157 9,5 C 22,8 C 0,0 km/h (0 Bft)
16.10.2014 08:40 10,3 C 93 % 1013,8 hPa 0,0 l/m 0,0 km/h (0 Bft) S-SO 157 9,2 C 22,8 C 0,0 km/h (0 Bft)
16.10.2014 08:50 10,0 C 93 % 1014,0 hPa 0,0 l/m 0,0 km/h (0 Bft) S-SO 157 8,9 C 22,8 C 0,0 km/h (0 Bft)
16.10.2014 09:00 10,0 C 93 % 1014,0 hPa 0,0 l/m 0,0 km/h (0 Bft) S-SO 157 8,9 C 22,8 C 0,0 km/h (0 Bft)
16.10.2014 09:10 10,6 C 93 % 1014,1 hPa 0,0 l/m 0,0 km/h (0 Bft) S-SO 157 9,5 C 22,8 C 0,0 km/h (0 Bft)
16.10.2014 09:20 10,8 C 93 % 1014,1 hPa 0,0 l/m 0,0 km/h (0 Bft) S-SO 157 9,7 C 22,8 C 0,0 km/h (0 Bft)
16.10.2014 09:30 11,1 C 93 % 1014,3 hPa 0,0 l/m 0,0 km/h (0 Bft) S-SO 157 10,0 C 22,8 C 0,0 km/h (0 Bft)
16.10.2014 09:38 11,3 C 93 % 1014,3 hPa 0,0 l/m 0,0 km/h (0 Bft) S-SO 157 10,2 C 22,8 C 0,0 km/h (0 Bft)
16.10.2014 09:40 11,3 C 93 % 1014,3 hPa 0,0 l/m 0,0 km/h (0 Bft) S-SO 157 10,2 C 22,8 C 0,0 km/h (0 Bft)
16.10.2014 09:50 11,4 C 92 % 1014,2 hPa 0,0 l/m 0,0 km/h (0 Bft) S-SO 157 10,1 C 22,8 C 0,0 km/h (0 Bft)
16.10.2014 10:00 11,9 C 90 % 1014,2 hPa 0,0 l/m 0,0 km/h (0 Bft) S-SO 157 10,3 C 22,8 C 0,0 km/h (0 Bft)
16.10.2014 10:10 11,9 C 90 % 1014,3 hPa 0,0 l/m 0,0 km/h (0 Bft) S-SO 157 10,3 C 22,8 C 0,0 km/h (0 Bft)
16.10.2014 10:20 12,3 C 89 % 1014,3 hPa 0,0 l/m 0,0 km/h (0 Bft) S-SO 157 10,5 C 22,8 C 0,0 km/h (0 Bft)
16.10.2014 10:30 12,5 C 90 % 1014,4 hPa 0,0 l/m 0,0 km/h (0 Bft) S-SO 157 10,9 C 22,8 C 0,0 km/h (0 Bft)
16.10.2014 10:40 13,4 C 90 % 1014,4 hPa 0,0 l/m 0,0 km/h (0 Bft) S-SO 157 11,8 C 22,8 C 0,0 km/h (0 Bft)
16.10.2014 10:50 15,0 C 88 % 1014,4 hPa 0,0 l/m 0,0 km/h (0 Bft) S-SO 157 13,0 C 22,8 C 0,0 km/h (0 Bft)
16.10.2014 11:00 15,2 C 88 % 1014,4 hPa 0,0 l/m 0,0 km/h (0 Bft) S-SO 157 13,2 C 22,8 C 0,0 km/h (0 Bft)
16.10.2014 11:10 15,3 C 82 % 1014,3 hPa 0,0 l/m 0,0 km/h (0 Bft) S-SO 157 12,2 C 22,8 C 0,0 km/h (0 Bft)
16.10.2014 11:20 15,4 C 83 % 1014,3 hPa 0,0 l/m 0,0 km/h (0 Bft) S-SO 157 12,5 C 22,8 C 0,0 km/h (0 Bft)
16.10.2014 11:30 16,1 C 82 % 1014,2 hPa 0,0 l/m 0,0 km/h (0 Bft) S-SO 157 13,0 C 22,8 C 0,0 km/h (0 Bft)
16.10.2014 11:40 16,3 C 80 % 1014,2 hPa 0,0 l/m 0,0 km/h (0 Bft) S-SO 157 12,8 C 22,8 C 0,0 km/h (0 Bft)
16.10.2014 11:50 16,9 C 82 % 1014,1 hPa 0,0 l/m 0,0 km/h (0 Bft) S-SO 157 13,8 C 22,8 C 0,0 km/h (0 Bft)
16.10.2014 12:00 16,7 C 80 % 1014,1 hPa 0,0 l/m 0,0 km/h (0 Bft) S-SO 157 13,2 C 22,8 C 0,0 km/h (0 Bft)
16.10.2014 12:10 16,8 C 69 % 1014,2 hPa 0,0 l/m 0,0 km/h (0 Bft) S-SO 157 11,1 C 22,8 C 0,0 km/h (0 Bft)
16.10.2014 12:20 19,1 C 71 % 1014,2 hPa 0,0 l/m 0,0 km/h (0 Bft) S-SO 157 13,7 C 22,8 C 0,0 km/h (0 Bft)
16.10.2014 12:30 18,8 C 67 % 1014,6 hPa 0,0 l/m 0,0 km/h (0 Bft) S-SO 157 12,5 C 22,8 C 0,0 km/h (0 Bft)
16.10.2014 12:38 18,6 C 66 % 1014,6 hPa 0,0 l/m 0,0 km/h (0 Bft) S-SO 157 12,1 C 22,8 C 0,0 km/h (0 Bft)
16.10.2014 12:40 18,6 C 66 % 1014,6 hPa 0,0 l/m 0,0 km/h (0 Bft) S-SO 157 12,1 C 22,8 C 0,0 km/h (0 Bft)
16.10.2014 12:50 18,1 C 63 % 1014,6 hPa 0,0 l/m 0,0 km/h (0 Bft) S-SO 157 10,9 C 22,8 C 0,0 km/h (0 Bft)
16.10.2014 13:00 18,4 C 57 % 1014,6 hPa 0,0 l/m 0,0 km/h (0 Bft) S-SO 157 9,7 C 22,8 C 0,0 km/h (0 Bft)
16.10.2014 13:10 18,1 C 57 % 1014,4 hPa 0,0 l/m 0,0 km/h (0 Bft) S-SO 157 9,4 C 22,8 C 0,0 km/h (0 Bft)
16.10.2014 13:20 17,8 C 59 % 1014,4 hPa 0,0 l/m 0,0 km/h (0 Bft) S-SO 157 9,7 C 22,8 C 0,0 km/h (0 Bft)
16.10.2014 13:30 17,6 C 60 % 1014,3 hPa 0,0 l/m 0,0 km/h (0 Bft) S-SO 157 9,7 C 22,8 C 0,0 km/h (0 Bft)
16.10.2014 13:40 17,3 C 59 % 1014,3 hPa 0,0 l/m 0,0 km/h (0 Bft) S-SO 157 9,2 C 22,8 C 0,0 km/h (0 Bft)
16.10.2014 13:50 17,1 C 55 % 1014,4 hPa 0,0 l/m 0,0 km/h (0 Bft) S-SO 157 8,0 C 22,8 C 0,0 km/h (0 Bft)
16.10.2014 14:00 16,6 C 56 % 1014,4 hPa 0,0 l/m 0,0 km/h (0 Bft) S-SO 157 7,8 C 22,8 C 0,0 km/h (0 Bft)
16.10.2014 14:10 16,5 C 58 % 1014,2 hPa 0,0 l/m 0,0 km/h (0 Bft) S-SO 157 8,2 C 22,8 C 0,0 km/h (0 Bft)
16.10.2014 14:20 15,8 C 62 % 1014,2 hPa 0,0 l/m 0,0 km/h (0 Bft) S-SO 157 8,5 C 22,8 C 0,0 km/h (0 Bft)
16.10.2014 14:30 15,1 C 67 % 1014,4 hPa 0,0 l/m 0,0 km/h (0 Bft) S-SO 157 9,0 C 22,8 C 0,0 km/h (0 Bft)
16.10.2014 14:40 14,2 C 73 % 1014,4 hPa 0,0 l/m 0,0 km/h (0 Bft) S-SO 157 9,4 C 22,8 C 0,0 km/h (0 Bft)
16.10.2014 14:50 14,0 C 83 % 1014,4 hPa 0,0 l/m 0,0 km/h (0 Bft) S-SO 157 11,2 C 22,8 C 0,0 km/h (0 Bft)
16.10.2014 15:00 13,1 C 86 % 1014,4 hPa 0,0 l/m 0,0 km/h (0 Bft) S-SO 157 10,8 C 22,8 C 0,0 km/h (0 Bft)
16.10.2014 15:10 13,1 C 88 % 1014,3 hPa 0,0 l/m 0,0 km/h (0 Bft) S-SO 157 11,2 C 22,8 C 0,0 km/h (0 Bft)
16.10.2014 15:20 13,4 C 89 % 1014,3 hPa 0,0 l/m 0,0 km/h (0 Bft) S-SO 157 11,6 C 22,8 C 0,0 km/h (0 Bft)
16.10.2014 15:28 13,5 C 89 % 1014,5 hPa 0,0 l/m 0,0 km/h (0 Bft) S-SO 157 11,7 C 22,8 C 0,0 km/h (0 Bft)
16.10.2014 15:30 13,5 C 89 % 1014,5 hPa 0,0 l/m 0,0 km/h (0 Bft) S-SO 157 11,7 C 22,8 C 0,0 km/h (0 Bft)
16.10.2014 15:40 13,4 C 89 % 1014,5 hPa 0,0 l/m 0,0 km/h (0 Bft) S-SO 157 11,6 C 22,8 C 0,0 km/h (0 Bft)
16.10.2014 15:50 13,5 C 90 % 1014,8 hPa 0,0 l/m 0,0 km/h (0 Bft) S-SO 157 11,9 C 22,8 C 0,0 km/h (0 Bft)
16.10.2014 16:00 13,4 C 89 % 1014,8 hPa 0,0 l/m 0,0 km/h (0 Bft) S-SO 157 11,6 C 22,8 C 0,0 km/h (0 Bft)
16.10.2014 16:10 13,2 C 89 % 1014,8 hPa 0,0 l/m 0,0 km/h (0 Bft) S-SO 157 11,4 C 22,8 C 0,0 km/h (0 Bft)
16.10.2014 16:20 13,3 C 89 % 1014,8 hPa 0,0 l/m 0,0 km/h (0 Bft) S-SO 157 11,5 C 22,8 C 0,0 km/h (0 Bft)
16.10.2014 16:30 13,3 C 89 % 1014,5 hPa 0,0 l/m 0,0 km/h (0 Bft) S-SO 157 11,5 C 22,8 C 0,0 km/h (0 Bft)
16.10.2014 16:40 13,3 C 90 % 1014,5 hPa 0,0 l/m 0,0 km/h (0 Bft) S-SO 157 11,7 C 22,8 C 0,0 km/h (0 Bft)
16.10.2014 16:50 13,3 C 90 % 1014,8 hPa 0,0 l/m 0,0 km/h (0 Bft) S-SO 157 11,7 C 22,8 C 0,0 km/h (0 Bft)
16.10.2014 17:00 13,3 C 90 % 1014,8 hPa 0,0 l/m 0,0 km/h (0 Bft) S-SO 157 11,7 C 22,8 C 0,0 km/h (0 Bft)
16.10.2014 17:10 13,5 C 89 % 1014,9 hPa 0,0 l/m 0,0 km/h (0 Bft) S-SO 157 11,7 C 22,8 C 0,0 km/h (0 Bft)
16.10.2014 17:20 13,4 C 89 % 1014,9 hPa 0,0 l/m 0,0 km/h (0 Bft) S-SO 157 11,6 C 22,8 C 0,0 km/h (0 Bft)
16.10.2014 17:30 13,4 C 89 % 1014,8 hPa 0,0 l/m 0,0 km/h (0 Bft) S-SO 157 11,6 C 22,8 C 0,0 km/h (0 Bft)
16.10.2014 17:40 13,2 C 89 % 1014,8 hPa 0,0 l/m 0,0 km/h (0 Bft) S-SO 157 11,4 C 22,8 C 0,0 km/h (0 Bft)
16.10.2014 17:50 13,2 C 89 % 1014,9 hPa 0,0 l/m 0,0 km/h (0 Bft) S-SO 157 11,4 C 22,8 C 0,0 km/h (0 Bft)
16.10.2014 18:00 13,0 C 90 % 1014,9 hPa 0,0 l/m 0,0 km/h (0 Bft) S-SO 157 11,4 C 22,8 C 0,0 km/h (0 Bft)
16.10.2014 18:10 12,7 C 92 % 1015,1 hPa 0,0 l/m 0,0 km/h (0 Bft) S-SO 157 11,4 C 22,8 C 0,0 km/h (0 Bft)
16.10.2014 18:20 12,6 C 92 % 1015,1 hPa 0,0 l/m 0,0 km/h (0 Bft) S-SO 157 11,3 C 22,8 C 0,0 km/h (0 Bft)
16.10.2014 18:28 12,3 C 92 % 1015,1 hPa 0,0 l/m 0,0 km/h (0 Bft) S-SO 157 11,0 C 22,8 C 0,0 km/h (0 Bft)
16.10.2014 18:30 12,3 C 92 % 1015,1 hPa 0,0 l/m 0,0 km/h (0 Bft) S-SO 157 11,0 C 22,8 C 0,0 km/h (0 Bft)
16.10.2014 18:40 12,1 C 93 % 1015,1 hPa 0,0 l/m 0,0 km/h (0 Bft) S-SO 157 11,0 C 22,8 C 0,0 km/h (0 Bft)
16.10.2014 18:50 12,0 C 93 % 1015,2 hPa 0,0 l/m 0,0 km/h (0 Bft) S-SO 157 10,9 C 22,8 C 0,0 km/h (0 Bft)
16.10.2014 19:00 11,9 C 93 % 1015,2 hPa 0,0 l/m 0,0 km/h (0 Bft) S-SO 157 10,8 C 22,8 C 0,0 km/h (0 Bft)
16.10.2014 19:10 11,8 C 93 % 1015,4 hPa 0,0 l/m 0,0 km/h (0 Bft) S-SO 157 10,7 C 22,8 C 0,0 km/h (0 Bft)
16.10.2014 19:20 11,7 C 94 % 1015,4 hPa 0,0 l/m 0,0 km/h (0 Bft) S-SO 157 10,8 C 22,8 C 0,0 km/h (0 Bft)
16.10.2014 19:30 11,8 C 94 % 1015,8 hPa 0,0 l/m 0,0 km/h (0 Bft) S-SO 157 10,9 C 22,8 C 0,0 km/h (0 Bft)
16.10.2014 19:40 11,7 C 94 % 1015,8 hPa 0,0 l/m 0,0 km/h (0 Bft) S-SO 157 10,8 C 22,8 C 0,0 km/h (0 Bft)
16.10.2014 19:50 11,7 C 94 % 1015,9 hPa 0,0 l/m 0,0 km/h (0 Bft) S-SO 157 10,8 C 22,8 C 0,0 km/h (0 Bft)
16.10.2014 20:00 11,9 C 94 % 1015,9 hPa 0,0 l/m 0,0 km/h (0 Bft) S-SO 157 11,0 C 22,8 C 0,0 km/h (0 Bft)
16.10.2014 20:10 12,0 C 94 % 1015,8 hPa 0,0 l/m 0,0 km/h (0 Bft) S-SO 157 11,1 C 22,8 C 0,0 km/h (0 Bft)
16.10.2014 20:20 12,1 C 94 % 1015,8 hPa 0,0 l/m 0,0 km/h (0 Bft) S-SO 157 11,2 C 22,8 C 0,0 km/h (0 Bft)
16.10.2014 20:30 11,7 C 94 % 1015,3 hPa 0,0 l/m 0,0 km/h (0 Bft) S-SO 157 10,8 C 22,8 C 0,0 km/h (0 Bft)
16.10.2014 20:40 11,8 C 94 % 1015,3 hPa 0,0 l/m 0,0 km/h (0 Bft) S-SO 157 10,9 C 22,8 C 0,0 km/h (0 Bft)
16.10.2014 20:50 11,8 C 94 % 1015,8 hPa 0,0 l/m 0,0 km/h (0 Bft) S-SO 157 10,9 C 22,8 C 0,0 km/h (0 Bft)
16.10.2014 21:00 11,7 C 94 % 1015,8 hPa 0,0 l/m 0,0 km/h (0 Bft) S-SO 157 10,8 C 22,8 C 0,0 km/h (0 Bft)
16.10.2014 21:10 11,6 C 94 % 1015,8 hPa 0,0 l/m 0,0 km/h (0 Bft) S-SO 157 10,7 C 22,8 C 0,0 km/h (0 Bft)
16.10.2014 21:20 11,7 C 94 % 1015,8 hPa 0,0 l/m 0,0 km/h (0 Bft) S-SO 157 10,8 C 22,8 C 0,0 km/h (0 Bft)
16.10.2014 21:28 11,5 C 94 % 1016,0 hPa 0,0 l/m 0,0 km/h (0 Bft) S-SO 157 10,6 C 22,8 C 0,0 km/h (0 Bft)
16.10.2014 21:30 11,5 C 94 % 1016,0 hPa 0,0 l/m 0,0 km/h (0 Bft) S-SO 157 10,6 C 22,8 C 0,0 km/h (0 Bft)
16.10.2014 21:40 11,5 C 94 % 1016,0 hPa 0,0 l/m 0,0 km/h (0 Bft) S-SO 157 10,6 C 22,8 C 0,0 km/h (0 Bft)
16.10.2014 21:50 11,7 C 94 % 1016,1 hPa 0,0 l/m 0,0 km/h (0 Bft) S-SO 157 10,8 C 22,8 C 0,0 km/h (0 Bft)
16.10.2014 22:00 11,9 C 93 % 1016,1 hPa 0,0 l/m 0,0 km/h (0 Bft) S-SO 157 10,8 C 22,8 C 0,0 km/h (0 Bft)
16.10.2014 22:10 11,7 C 93 % 1015,9 hPa 0,0 l/m 0,0 km/h (0 Bft) S-SO 157 10,6 C 22,8 C 0,0 km/h (0 Bft)
16.10.2014 22:20 11,9 C 93 % 1015,9 hPa 0,0 l/m 0,0 km/h (0 Bft) S-SO 157 10,8 C 22,8 C 0,0 km/h (0 Bft)
16.10.2014 22:30 11,7 C 93 % 1016,0 hPa 0,0 l/m 0,0 km/h (0 Bft) S-SO 157 10,6 C 22,8 C 0,0 km/h (0 Bft)
16.10.2014 22:40 11,6 C 94 % 1016,0 hPa 0,0 l/m 0,0 km/h (0 Bft) S-SO 157 10,7 C 22,8 C 0,0 km/h (0 Bft)
16.10.2014 22:50 11,5 C 94 % 1015,8 hPa 0,0 l/m 0,0 km/h (0 Bft) S-SO 157 10,6 C 22,8 C 0,0 km/h (0 Bft)
16.10.2014 23:00 11,6 C 94 % 1015,8 hPa 0,0 l/m 0,0 km/h (0 Bft) S-SO 157 10,7 C 22,8 C 0,0 km/h (0 Bft)
16.10.2014 23:10 11,6 C 94 % 1015,8 hPa 0,0 l/m 0,0 km/h (0 Bft) S-SO 157 10,7 C 22,8 C 0,0 km/h (0 Bft)
16.10.2014 23:20 11,6 C 94 % 1015,8 hPa 0,0 l/m 0,0 km/h (0 Bft) S-SO 157 10,7 C 22,8 C 0,0 km/h (0 Bft)
16.10.2014 23:30 11,5 C 94 % 1015,6 hPa 0,0 l/m 0,0 km/h (0 Bft) S-SO 157 10,6 C 22,8 C 0,0 km/h (0 Bft)
16.10.2014 23:40 11,4 C 94 % 1015,6 hPa 0,0 l/m 0,0 km/h (0 Bft) S-SO 157 10,5 C 22,8 C 0,0 km/h (0 Bft)
16.10.2014 23:50 11,4 C 94 % 1015,8 hPa 0,0 l/m 0,0 km/h (0 Bft) S-SO 157 10,5 C 22,8 C 0,0 km/h (0 Bft)
_ Min-Zeit 07:10 13:50 03:40 - 23:50 - - 14:00 23:50 23:50
Minimum _ 9,3 C 55 % 1013,0 hPa - 0,0 km/h (0 Bft) - - 7,8 C 22,8 C 0,0 km/h (0 Bft)
_ Max-Zeit 12:20 07:50 22:00 23:50 23:50 - - 11:50 23:50 23:50
Maximum _ 19,1 C 95 % 1016,1 hPa 0,0 l/m 0,0 km/h
S-SO (0 Bft)
- - 13,8 C 22,8 C 0,0 km/h
S-SO (0 Bft)
Durchschnitt _ 12,3 C 89 % 1014,3 hPa #0,0 l/m 0,0 km/h (0 Bft) - - - 10,4 C 22,8 C 0,0 km/h (0 Bft)